This is the latest recevied weather packets stored in our database for station/object K4OAM-13. If no packets are shown the sender has not sent any weather packets the latest 10 day(s).
| Time | Temp. | Humidity | Pressure | Rain* | Wind** | Luminosity | Snow |
|---|---|---|---|---|---|---|---|
| 1777604224 | 7.78° C | 72% | 1008.1 hPa | - | - | - | - |
| 1777603624 | 7.22° C | 72% | 1008.2 hPa | - | - | - | - |
| 1777603024 | 7.22° C | 72% | 1008.2 hPa | - | - | - | - |
| 1777602424 | 7.22° C | 74% | 1008.5 hPa | - | - | - | - |
| 1777601824 | 6.67° C | 74% | 1008.5 hPa | - | - | - | - |
| 1777601224 | 7.22° C | 74% | 1008.6 hPa | - | - | - | - |
| 1777600625 | 7.22° C | 75% | 1008.6 hPa | - | - | - | - |
| 1777600024 | 7.22° C | 74% | 1008.5 hPa | - | - | - | - |
| 1777599424 | 7.22° C | 74% | 1008.3 hPa | - | - | - | - |
| 1777598824 | 7.22° C | 74% | 1008.5 hPa | - | - | - | - |
| 1777598224 | 7.22° C | 75% | 1008.3 hPa | - | - | - | - |
| 1777597624 | 7.22° C | 76% | 1008.4 hPa | - | - | - | - |
| 1777597024 | 7.22° C | 79% | 1008.3 hPa | - | - | - | - |
| 1777596424 | 7.22° C | 80% | 1008.1 hPa | - | - | - | - |
| 1777595824 | 7.22° C | 79% | 1007.8 hPa | - | - | - | - |
| 1777595223 | 7.78° C | 79% | 1007.7 hPa | - | - | - | - |
| 1777594624 | 7.22° C | 79% | 1007.7 hPa | - | - | - | - |
| 1777594025 | 7.22° C | 78% | 1007.7 hPa | - | - | - | - |
| 1777593424 | 7.78° C | 77% | 1007.6 hPa | - | - | - | - |
| 1777592824 | 7.78° C | 79% | 1007.5 hPa | - | - | - | - |
| 1777592224 | 7.78° C | 77% | 1007.5 hPa | - | - | - | - |
| 1777591627 | 7.78° C | 75% | 1007.5 hPa | - | - | - | - |
| 1777591024 | 7.78° C | 76% | 1007.4 hPa | - | - | - | - |
| 1777590424 | 7.78° C | 76% | 1007.4 hPa | - | - | - | - |
| 1777589824 | 7.78° C | 75% | 1007.4 hPa | - | - | - | - |
* Rain since midnight (hover to see other rain measurements)
** Current wind speed in m/s (hover to see current wind gust speed)